Wind_Speed
73 73 76 77 75 74 76 76 79 80 82 83 85 85 82 77 77 78 79 77 77 78 77 75 75 79 79 73 71 71 70 70 70 72 73 72 72 68 63 60 56 52 51
75 78 81 82 80 79 81 78 76 76 84 90 90 90 88 87 87 86 84 83 78 78 80 79 76 77 79 78 76 75 73 75 74 73 75 75 75 71 66 60 57 55 55
86 89 88 85 82 78 78 81 80 79 83 84 88 94 92 91 86 84 87 85 82 83 85 81 80 79 78 78 79 78 75 74 75 75 76 76 76 75 69 61 57 55 53
94 93 92 90 87 88 90 88 85 87 88 89 88 86 89 91 91 88 89 84 80 79 84 81 79 82 80 79 78 79 77 75 75 77 79 78 79 77 73 68 62 56 55
100 100 98 95 92 92 93 93 92 90 91 94 96 96 93 93 97 96 94 87 83 81 81 78 78 78 82 81 82 77 80 78 77 78 83 83 81 78 75 66 61 59 58
100 99 99 99 98 98 98 99 99 99 98 97 98 100 100 98 101 101 96 93 95 91 84 84 86 79 79 80 80 83 80 83 81 80 84 86 82 80 78 75 68 64 58
86 87 88 90 92 93 95 98 101 102 104 104 104 104 103 103 103 104 105 104 101 96 95 91 90 88 87 89 79 81 81 82 88 87 84 85 86 83 78 77 73 67 59
79 80 81 83 86 88 90 93 96 100 103 104 106 108 110 107 106 106 107 108 108 105 102 95 94 93 91 92 95 85 85 80 79 88 84 82 85 81 78 78 75 74 65
76 77 80 82 84 85 86 88 90 94 96 98 99 101 103 106 107 110 111 111 112 111 109 106 103 98 96 93 92 97 88 87 88 82 78 85 82 78 76 75 77 74 70
74 77 80 82 85 86 86 86 87 88 89 90 90 91 93 95 95 100 104 110 112 113 112 111 108 105 102 102 99 95 99 89 82 85 90 82 79 80 80 73 74 73 73
75 78 80 82 85 86 85 85 85 85 85 84 85 86 89 92 90 93 96 101 103 105 107 110 110 110 108 108 108 104 96 98 99 89 89 97 96 94 91 74 73 82 81
77 79 80 81 80 80 79 76 73 69 64 62 65 68 71 76 83 89 94 99 100 100 96 99 103 106 108 109 111 109 104 100 100 105 98 87 85 84 77 76 68 73 73
73 74 72 71 69 67 63 58 54 54 61 65 69 72 71 73 70 70 73 84 93 98 95 91 91 95 101 107 107 107 106 104 100 99 102 92 87 86 84 70 78 78 73
69 64 60 59 59 59 52 53 58 65 67 69 72 71 66 61 66 69 67 69 73 80 89 92 90 90 93 99 100 103 105 103 102 96 93 92 91 89 83 77 78 77 76
57 52 51 53 53 50 52 54 53 63 67 67 67 63 60 57 53 57 61 61 64 66 73 79 85 87 89 89 91 93 95 98 98 98 95 93 86 89 83 84 85 81 83
43 41 42 46 48 45 39 39 50 56 57 56 57 56 51 51 53 49 50 50 50 53 58 60 67 74 82 84 85 83 86 87 88 91 94 92 96 91 89 87 82 84 81
34 35 37 39 36 34 36 40 46 50 52 54 60 53 46 42 42 46 43 43 43 46 50 53 55 60 68 77 80 80 81 81 82 86 89 92 91 91 89 85 85 88 86
33 34 35 35 36 39 43 46 46 46 47 47 57 47 38 35 33 34 37 37 37 38 41 43 45 51 57 65 70 75 78 80 81 83 85 85 86 82 80 85 85 83 89
32 31 30 32 36 39 41 40 41 43 46 47 52 42 35 30 27 25 27 29 30 31 31 28 33 41 47 55 62 68 75 78 81 82 82 83 80 78 79 75 79 84 89
30 29 30 31 33 35 38 39 39 40 42 43 46 45 34 28 23 20 19 21 24 28 31 32 33 38 43 47 53 60 68 75 78 79 79 78 75 72 71 75 74 78 78
27 28 29 30 33 35 36 38 38 38 38 39 41 43 41 29 23 19 16 16 20 24 27 30 32 33 37 42 46 52 59 66 72 74 76 78 74 76 72 67 67 68 72
26 27 29 30 33 36 38 38 38 38 38 36 35 35 36 34 25 20 17 15 16 20 22 23 24 27 30 34 39 43 48 54 62 65 70 74 70 68 68 70 64 62 64
25 27 29 31 34 38 41 41 40 39 39 36 32 30 28 28 28 23 18 16 15 15 16 17 19 22 25 28 30 34 38 42 50 57 60 59 61 62 60 60 59 60 56
23 25 29 32 35 37 40 42 43 42 40 37 32 27 23 22 22 22 22 18 14 13 12 12 14 16 18 20 22 25 29 34 38 44 58 51 51 51 53 55 60 59 60
24 27 30 32 35 38 40 42 42 43 43 40 33 29 22 19 18 17 18 18 16 14 11 6 6 9 12 13 15 17 23 29 36 32 42 41 42 47 48 45 46 47 47
24 28 30 33 36 38 40 41 41 41 41 39 33 28 27 20 17 17 17 16 17 14 11 8 6 6 6 6 13 16 18 21 32 37 32 36 37 39 40 39 39 38 38
Wind_Direction
271 268 270 273 273 271 269 267 266 263 260 260 260 261 259 258 257 256 256 255 256 257 257 258 260 261 260 256 255 255 256 259 259 259 257 255 256 257 258 257 257 258 258
271 271 274 276 277 273 271 271 269 267 262 259 259 261 263 260 259 260 257 257 256 257 257 257 257 258 260 257 255 254 253 255 254 254 255 254 255 256 256 254 254 256 260
273 277 278 277 275 267 269 271 270 268 263 263 263 264 264 261 258 257 258 255 257 259 260 257 256 257 257 258 256 253 252 251 251 250 250 251 252 255 254 253 254 258 261
276 275 275 273 272 270 270 270 269 266 264 263 262 263 266 267 265 263 255 251 253 255 257 257 257 256 256 258 255 253 249 248 248 247 247 247 249 253 253 253 256 260 260
278 277 277 275 274 271 270 270 269 267 265 265 264 265 264 264 268 270 265 260 259 254 247 251 254 256 256 255 255 252 250 245 243 243 245 246 248 252 254 251 254 260 263
277 277 277 276 275 274 273 272 271 270 269 267 266 266 267 266 265 267 268 268 266 264 262 259 254 250 251 255 255 256 251 247 240 240 243 247 248 248 248 248 255 261 261
279 278 278 278 277 276 276 275 274 272 271 270 268 265 264 264 264 265 267 267 263 262 263 262 260 261 259 252 254 253 252 253 246 241 242 242 243 245 246 251 255 260 256
281 281 281 281 280 279 278 277 276 275 273 271 270 269 267 263 262 263 263 264 264 263 260 257 256 255 256 258 253 250 249 248 250 248 246 247 248 248 250 252 254 255 257
285 285 284 283 282 281 280 279 278 278 277 276 273 271 269 267 265 263 261 261 260 260 260 258 256 253 252 253 254 253 249 248 247 250 251 250 249 249 250 253 254 256 258
285 285 285 285 285 284 284 283 281 279 278 276 275 273 271 269 266 265 263 260 258 257 257 256 256 255 253 251 252 251 252 249 248 250 247 245 247 249 245 249 255 258 258
288 288 288 288 287 287 286 285 284 283 281 280 278 275 272 269 266 264 263 263 260 256 254 253 252 253 252 252 251 249 249 250 249 246 245 248 248 249 252 250 252 255 258
293 293 293 294 294 292 291 290 290 289 288 288 286 282 279 274 268 264 261 261 260 259 255 252 251 250 249 249 251 251 248 249 249 248 246 251 251 253 256 259 252 252 256
296 296 298 297 297 296 295 293 291 291 292 294 295 289 281 275 273 270 265 261 259 259 257 252 249 248 247 247 246 248 250 248 247 247 250 252 246 250 250 251 247 245 247
301 303 303 302 301 302 299 296 297 297 296 296 293 293 285 281 272 267 268 267 262 259 256 253 249 245 246 245 243 244 246 247 247 246 247 243 243 242 245 247 248 253 251
305 304 305 303 301 300 298 304 311 308 305 300 296 291 284 273 274 271 265 268 261 261 259 254 250 246 245 244 244 241 242 244 245 245 241 240 244 243 244 244 244 248 250
303 305 314 311 307 305 306 312 316 318 319 317 314 306 298 283 268 268 268 267 260 260 262 260 254 248 243 241 241 241 239 239 240 240 240 239 238 244 245 243 243 243 250
302 313 327 327 314 307 306 314 318 320 319 321 326 317 308 300 277 265 265 265 263 259 260 258 252 246 241 238 236 235 237 237 236 235 236 238 237 240 241 244 242 244 247
304 314 326 339 337 321 312 311 314 323 324 324 327 324 315 307 291 272 266 265 261 263 265 254 250 243 238 236 234 233 231 232 234 234 232 235 237 238 241 242 243 244 245
306 315 327 336 340 338 336 324 317 322 328 329 338 333 324 318 304 287 268 259 254 258 263 262 254 247 236 234 232 231 229 228 230 231 231 233 236 236 238 241 242 243 245
306 317 328 335 336 339 336 339 336 326 328 330 339 348 336 329 321 304 281 263 254 253 255 256 255 248 237 235 235 233 230 228 229 230 230 232 234 235 237 241 244 244 242
306 319 328 334 337 340 339 340 338 340 331 330 337 347 351 343 330 319 304 281 266 258 255 254 257 256 246 239 237 236 234 231 230 230 230 232 235 237 239 240 245 247 243
309 318 324 331 337 340 342 342 341 343 344 334 334 342 350 354 346 331 316 307 288 275 269 267 265 260 252 245 243 243 239 236 233 231 230 233 236 242 244 244 247 244 241
311 319 325 330 335 337 339 341 341 341 344 344 332 334 341 350 359 355 342 325 310 298 287 274 262 256 253 250 248 246 240 235 235 234 227 230 233 238 241 244 242 239 249
310 317 322 328 332 332 335 337 337 338 341 342 344 326 332 335 347 350 356 358 351 334 304 278 264 258 254 249 243 240 237 232 230 238 226 233 237 237 240 241 241 241 246
309 315 320 325 329 329 332 334 335 335 336 338 340 342 316 322 324 335 344 343 332 339 337 320 280 264 253 244 234 236 235 231 221 225 229 235 237 241 246 247 244 240 243
311 315 321 324 327 329 330 331 333 332 332 333 338 342 341 308 307 316 319 326 334 334 321 307 300 269 236 240 238 235 225 228 226 219 226 229 232 231 232 237 239 238 239
Height
5617 5616 5615 5613 5612 5611 5610 5608 5608 5607 5607 5606 5604 5603 5604 5604 5606 5608 5610 5610 5612 5616 5618 5620 5624 5625 5629 5631 5633 5634 5638 5642 5645 5650 5653 5655 5657 5661 5663 5666 5670 5672 5673
5596 5594 5593 5592 5591 5589 5587 5585 5585 5584 5584 5582 5583 5583 5582 5580 5581 5584 5586 5586 5587 5591 5596 5598 5602 5602 5608 5610 5612 5615 5617 5619 5623 5628 5634 5636 5640 5643 5646 5650 5653 5654 5657
5574 5571 5568 5567 5566 5565 5564 5562 5561 5561 5560 5559 5558 5557 5556 5557 5558 5558 5559 5560 5563 5566 5570 5575 5579 5580 5585 5588 5591 5593 5595 5596 5601 5606 5612 5617 5621 5624 5629 5633 5636 5636 5638
5545 5543 5541 5540 5540 5539 5537 5536 5535 5534 5533 5533 5533 5532 5530 5530 5530 5532 5534 5536 5538 5542 5546 5550 5555 5557 5561 5564 5567 5571 5571 5575 5578 5586 5591 5596 5600 5605 5611 5616 5619 5618 5619
5516 5513 5511 5511 5511 5510 5509 5507 5507 5506 5505 5504 5505 5505 5507 5507 5507 5505 5506 5509 5512 5516 5521 5526 5531 5535 5539 5541 5544 5548 5550 5551 5554 5563 5569 5575 5581 5587 5595 5597 5597 5599 5603
5487 5484 5481 5478 5479 5478 5478 5477 5476 5475 5475 5475 5475 5475 5476 5478 5478 5477 5478 5480 5483 5487 5494 5499 5504 5509 5515 5519 5523 5524 5528 5531 5532 5538 5545 5554 5562 5568 5571 5577 5575 5579 5586
5460 5457 5453 5448 5446 5444 5442 5440 5439 5438 5438 5440 5441 5443 5445 5447 5448 5446 5445 5445 5451 5459 5466 5471 5477 5483 5488 5493 5499 5503 5507 5511 5515 5518 5520 5531 5535 5546 5551 5551 5556 5560 5566
5437 5433 5430 5423 5419 5416 5412 5408 5405 5401 5401 5403 5404 5403 5404 5414 5416 5415 5413 5410 5415 5424 5433 5441 5447 5454 5460 5464 5469 5476 5484 5488 5496 5500 5505 5512 5514 5523 5527 5531 5533 5533 5542
5416 5411 5405 5399 5393 5389 5386 5382 5377 5371 5370 5368 5367 5368 5366 5371 5375 5375 5374 5374 5379 5388 5396 5404 5413 5423 5432 5435 5437 5448 5455 5466 5472 5477 5483 5489 5492 5498 5505 5507 5512 5515 5523
5397 5390 5383 5375 5368 5362 5357 5353 5348 5342 5338 5334 5334 5333 5331 5332 5338 5335 5332 5329 5338 5350 5360 5367 5377 5387 5398 5404 5406 5416 5427 5445 5445 5450 5458 5463 5470 5476 5482 5488 5491 5494 5499
5377 5369 5361 5352 5343 5336 5330 5323 5316 5311 5306 5303 5300 5300 5296 5295 5300 5298 5296 5287 5294 5307 5318 5330 5342 5352 5360 5366 5372 5382 5404 5406 5415 5422 5431 5435 5444 5452 5460 5466 5471 5473 5478
5355 5346 5336 5327 5318 5309 5301 5296 5289 5283 5279 5275 5271 5269 5265 5261 5260 5260 5259 5255 5257 5261 5282 5295 5305 5314 5321 5332 5337 5352 5369 5373 5380 5393 5403 5411 5421 5429 5437 5442 5448 5451 5457
5334 5325 5316 5306 5295 5285 5279 5274 5270 5264 5258 5254 5247 5241 5237 5232 5230 5227 5225 5225 5224 5227 5243 5258 5267 5275 5283 5294 5307 5321 5330 5338 5350 5361 5377 5387 5398 5404 5409 5417 5423 5427 5432
5315 5307 5298 5289 5279 5270 5263 5258 5253 5245 5237 5229 5221 5214 5208 5204 5200 5199 5198 5197 5197 5198 5205 5218 5231 5241 5249 5259 5274 5287 5295 5308 5322 5335 5348 5359 5367 5376 5384 5393 5401 5407 5411
5300 5292 5284 5275 5265 5259 5252 5245 5237 5226 5214 5204 5194 5186 5181 5179 5175 5170 5170 5172 5171 5174 5176 5186 5198 5210 5222 5233 5245 5258 5269 5280 5291 5305 5318 5330 5341 5349 5359 5368 5376 5383 5389
5288 5281 5272 5261 5252 5246 5240 5234 5222 5211 5198 5185 5173 5162 5157 5151 5150 5150 5149 5150 5152 5154 5157 5165 5174 5183 5194 5205 5217 5232 5241 5250 5262 5273 5286 5300 5313 5322 5333 5343 5351 5358 5362
5278 5270 5262 5251 5242 5235 5229 5223 5217 5204 5189 5175 5161 5148 5139 5132 5128 5130 5132 5133 5136 5137 5141 5146 5152 5157 5167 5176 5190 5204 5216 5226 5235 5244 5258 5271 5285 5296 5307 5317 5326 5333 5336
5268 5261 5252 5243 5234 5227 5220 5212 5204 5194 5184 5173 5154 5138 5130 5122 5116 5115 5117 5120 5122 5124 5128 5131 5134 5138 5146 5155 5168 5178 5190 5200 5210 5222 5233 5248 5260 5270 5281 5291 5299 5306 5312
5260 5253 5246 5237 5228 5220 5212 5202 5194 5185 5174 5163 5151 5134 5123 5116 5111 5107 5107 5108 5111 5114 5116 5119 5122 5125 5129 5136 5144 5153 5164 5177 5187 5198 5212 5226 5238 5250 5259 5267 5275 5283 5290
5251 5245 5238 5231 5223 5215 5207 5198 5187 5177 5168 5157 5147 5133 5121 5114 5108 5104 5102 5102 5103 5104 5106 5108 5111 5114 5118 5123 5129 5135 5144 5155 5167 5181 5194 5208 5219 5228 5237 5247 5255 5261 5266
5244 5238 5231 5224 5217 5210 5202 5193 5183 5172 5162 5153 5143 5132 5120 5112 5107 5102 5099 5098 5097 5098 5099 5101 5103 5106 5110 5113 5117 5122 5130 5140 5153 5165 5178 5190 5200 5210 5218 5226 5234 5240 5245
5236 5230 5224 5218 5211 5203 5195 5187 5178 5168 5159 5150 5141 5133 5123 5113 5106 5101 5098 5095 5094 5093 5094 5096 5097 5099 5102 5105 5109 5115 5122 5130 5140 5151 5162 5173 5185 5194 5203 5210 5217 5223 5227
5227 5223 5217 5211 5204 5197 5189 5181 5173 5165 5156 5147 5139 5132 5124 5116 5108 5102 5097 5094 5092 5091 5090 5090 5091 5092 5095 5098 5102 5107 5114 5122 5130 5139 5151 5162 5172 5181 5188 5194 5201 5205 5211
5220 5216 5211 5205 5198 5192 5184 5176 5168 5160 5152 5144 5136 5129 5123 5117 5111 5105 5100 5096 5092 5089 5088 5087 5087 5088 5090 5093 5097 5101 5107 5114 5122 5130 5141 5151 5159 5166 5173 5178 5183 5188 5194
5213 5209 5205 5199 5193 5187 5179 5171 5163 5155 5147 5140 5133 5126 5120 5116 5111 5106 5101 5097 5094 5091 5088 5087 5087 5087 5088 5090 5094 5097 5101 5106 5114 5123 5131 5140 5147 5154 5160 5165 5170 5174 5179
5207 5203 5198 5193 5187 5180 5173 5165 5158 5150 5142 5135 5128 5123 5117 5112 5108 5105 5102 5098 5095 5092 5090 5089 5088 5088 5088 5090 5092 5094 5097 5101 5107 5116 5124 5131 5137 5143 5148 5153 5158 5160 5164